Location: *
(1.3500°S, 147.5000°W)
Time: 20:02:14
(UTC+00:00)

ARGOS Delta rocket - Pass Details

Date: 07 April 2020
Orbit: 634 x 839 km, 96.4° (Epoch: 27 May)

Event Time Altitude Azimuth Distance (km) Brightness Sun altitude
Exits shadow 05:12:17 39° 116° (ESE) 1,101 4.3 -20.1°
Maximum altitude 05:13:24 46° 79° (E) 999 4.1 -20.3°
Drops below altitude 10° 05:18:19 10° 6° (N) 2,330 6.5 -21.6°
Sets 05:20:46 0° 1° (N) 3,284 7.4 -22.2°
